This is the latest recevied weather packets stored in our database for station/object AA8FM-13. If no packets are shown the sender has not sent any weather packets the latest 10 day(s).
| Time | Temp. | Humidity | Pressure | Rain* | Wind** | Luminosity | Snow |
|---|---|---|---|---|---|---|---|
| 1777835356 | 14.44° C | 40% | 1014 hPa | 0 mm | - | 626 W/m² | - |
| 1777835054 | 14.44° C | 40% | 1014 hPa | 0 mm | - | 655 W/m² | - |
| 1777834750 | 15° C | 45% | 1014.1 hPa | 0 mm | - | 665 W/m² | - |
| 1777834447 | 15° C | 39% | 1014 hPa | 0 mm | - | 659 W/m² | - |
| 1777834146 | 14.44° C | 39% | 1014.1 hPa | 0 mm | - | 661 W/m² | - |
| 1777833843 | 14.44° C | 39% | 1014.1 hPa | 0 mm | - | 632 W/m² | - |
| 1777833539 | 14.44° C | 39% | 1014.2 hPa | 0 mm | - | 667 W/m² | - |
| 1777833235 | 14.44° C | 43% | 1014.4 hPa | 0 mm | - | 672 W/m² | - |
| 1777832933 | 15° C | 40% | 1014.5 hPa | 0 mm | - | 669 W/m² | - |
| 1777832632 | 14.44° C | 44% | 1014.3 hPa | 0 mm | - | 693 W/m² | - |
| 1777832328 | 13.89° C | 40% | 1014.3 hPa | 0 mm | - | 462 W/m² | - |
| 1777832025 | 13.89° C | 41% | 1014.4 hPa | 0 mm | - | 685 W/m² | - |
| 1777831722 | 13.33° C | 42% | 1014.5 hPa | 0 mm | - | 677 W/m² | - |
| 1777831420 | 13.33° C | 41% | 1014.5 hPa | 0 mm | - | 175 W/m² | - |
| 1777831116 | 13.33° C | 44% | 1014.8 hPa | 0 mm | - | 705 W/m² | - |
| 1777830814 | 13.33° C | 43% | 1014.7 hPa | 0 mm | - | 695 W/m² | - |
| 1777830514 | 12.78° C | 50% | 1014.8 hPa | 0 mm | - | 597 W/m² | - |
| 1777830213 | 13.33° C | 43% | 1014.8 hPa | 0 mm | - | 702 W/m² | - |
| 1777829908 | 13.33° C | 42% | 1015 hPa | 0 mm | - | 703 W/m² | - |
| 1777829605 | 13.33° C | 45% | 1014.8 hPa | 0 mm | - | 704 W/m² | - |
| 1777829301 | 13.33° C | 44% | 1015 hPa | 0 mm | - | 707 W/m² | - |
| 1777828999 | 12.78° C | 46% | 1015 hPa | 0 mm | - | 643 W/m² | - |
| 1777828695 | 12.22° C | 43% | 1015 hPa | 0 mm | - | 700 W/m² | - |
| 1777828392 | 13.33° C | 41% | 1015 hPa | 0 mm | - | 695 W/m² | - |
| 1777828089 | 12.78° C | 44% | 1015.4 hPa | 0 mm | - | 702 W/m² | - |
* Rain latest hour (hover to see other rain measurements)
** Current wind speed in m/s (hover to see current wind gust speed)